Voltar ao catálogo

GONETS D1M 1

AtivoComunicaçõesPO
NORAD 28909·PAYLOAD·🇷🇺 Russia

Lançado Dec 21, 2005 de Plesetsk Cosmodrome

Loading…

Próximas Passagens (próximas 24 horas)

TLE

AtualizadoSource: Space-Track

Época: Sep 14, 2026, 14:07 UTC

1 28909U 05048B   26257.58881181  .00000112  00000-0  62260-3 0  9990
2 28909  82.4625 253.1109 0007215 332.8783 136.4677 12.55296193949769

Acompanhe GONETS D1M 1 em tempo real com AllMySat

Download on the App Store